Tracking 18844 objects as of 21-Nov-2017
HD Live streaming from Space Station
objects crossing your sky now

COSMOS 711

Track COSMOS 711 now!
10-day predictions
COSMOS 711 is classified as:


NORAD ID: 7678
Int'l Code: 1975-016A
Perigee: 1,467.9 km
Apogee: 1,500.2 km
Inclination: 74.0 °
Period: 115.5 minutes
Semi major axis: 7855 km
RCS: 0.7171 m2 (medium)
Launch date: February 28, 1975
Source: Commonwealth of Independent States (former USSR) (CIS)
Launch site: PLESETSK MISSILE AND SPACE COMPLEX (PKMTR)
aabbcc
Your satellite tracking list
Your tracking list is empty




NASA's NSSDC Master Catalog

Two Line Element Set (TLE):
1  7678U 75016A   17324.95050688 +.00000001 +00000-0 +11644-3 0  9995
2  7678 074.0041 243.1820 0020599 270.6707 160.5340 12.47041040945099
Source of the keplerian elements: AFSPC